TimeCST,TemperatureF,Dew PointF,Humidity,Sea Level PressureIn,VisibilityMPH,Wind Direction,Wind SpeedMPH,Gust SpeedMPH,PrecipitationIn,Events,Conditions,WindDirDegrees,DateUTC
12:53 AM,30.9,10.9,43,29.93,10.0,South,15.0,-,N/A,,Clear,170,2014-01-30 06:53:00
1:53 AM,32.0,12.0,44,29.90,10.0,South,18.4,-,N/A,,Clear,170,2014-01-30 07:53:00
2:53 AM,32.0,12.0,44,29.86,10.0,South,13.8,-,N/A,,Clear,170,2014-01-30 08:53:00
3:53 AM,32.0,10.9,42,29.83,10.0,South,13.8,-,N/A,,Clear,170,2014-01-30 09:53:00
4:53 AM,34.0,10.9,38,29.79,10.0,South,16.1,-,N/A,,Clear,170,2014-01-30 10:53:00
5:53 AM,33.1,10.9,40,29.78,10.0,South,17.3,-,N/A,,Clear,170,2014-01-30 11:53:00
6:53 AM,33.1,10.9,40,29.77,10.0,South,17.3,-,N/A,,Clear,180,2014-01-30 12:53:00
7:53 AM,33.1,12.9,43,29.76,10.0,South,15.0,-,N/A,,Clear,180,2014-01-30 13:53:00
8:53 AM,37.0,14.0,39,29.76,10.0,South,12.7,-,N/A,,Clear,180,2014-01-30 14:53:00
9:53 AM,45.0,15.1,30,29.75,10.0,SSW,24.2,-,N/A,,Clear,210,2014-01-30 15:53:00
10:53 AM,50.0,15.1,25,29.76,10.0,SSW,24.2,-,N/A,,Clear,210,2014-01-30 16:53:00
11:53 AM,54.0,16.0,22,29.73,10.0,SSW,20.7,28.8,N/A,,Clear,210,2014-01-30 17:53:00
12:53 PM,61.0,16.0,17,29.68,10.0,SW,23.0,27.6,N/A,,Clear,230,2014-01-30 18:53:00
1:53 PM,64.9,17.1,16,29.67,10.0,SW,18.4,-,N/A,,Clear,220,2014-01-30 19:53:00
2:53 PM,64.9,17.1,16,29.65,10.0,SSW,13.8,-,N/A,,Clear,210,2014-01-30 20:53:00
3:53 PM,66.0,17.1,15,29.66,10.0,West,9.2,18.4,N/A,,Clear,260,2014-01-30 21:53:00
4:53 PM,63.0,18.0,18,29.67,10.0,WNW,3.5,-,N/A,,Clear,300,2014-01-30 22:53:00
5:53 PM,55.9,19.9,25,29.69,10.0,North,9.2,-,N/A,,Clear,10,2014-01-30 23:53:00
6:53 PM,50.0,19.0,29,29.70,10.0,NNE,11.5,-,N/A,,Clear,20,2014-01-31 00:53:00
7:53 PM,48.0,19.9,33,29.70,10.0,NE,10.4,-,N/A,,Clear,40,2014-01-31 01:53:00
8:53 PM,46.0,19.9,35,29.70,10.0,NE,11.5,-,N/A,,Clear,50,2014-01-31 02:53:00
9:53 PM,45.0,23.0,42,29.70,10.0,ENE,10.4,-,N/A,,Clear,70,2014-01-31 03:53:00
10:53 PM,43.0,25.0,49,29.68,10.0,East,9.2,-,N/A,,Clear,100,2014-01-31 04:53:00
11:53 PM,42.1,27.0,55,29.68,10.0,East,9.2,-,N/A,,Clear,80,2014-01-31 05:53:00